GW719 Weather Reports


Display with metric or nautical units.
time (UTC)temp
F
wind
direction
speed
MPH
gust
MPH
rain 1hr
in
rain 24hr
in
rain mn
in
humidity
%
barometer
mb
20260906193517 103 212 4.0 8.0 0.00 0.00 0.00 34 1012.2
20260906192517 103 174 2.0 5.0 0.00 0.00 0.00 34 1012.3
20260906191518 103 207 3.0 6.0 0.00 0.00 0.00 34 1012.5
20260906190518 102 96 3.0 6.0 0.00 0.00 0.00 35 1012.7
20260906185518 102 79 3.0 6.0 0.00 0.00 0.00 35 1012.8
20260906184518 101 77 4.0 7.0 0.00 0.00 0.00 35 1012.8
20260906183538 102 73 5.0 8.0 0.00 0.00 0.00 35 1013.1
20260906182518 102 81 3.0 6.0 0.00 0.00 0.00 35 1013.2
20260906181538 102 62 3.0 6.0 0.00 0.00 0.00 35 1013.3
20260906180518 101 150 2.0 4.0 0.00 0.00 0.00 36 1013.6
20260906175519 100 98 2.0 4.0 0.00 0.00 0.00 37 1013.7
20260906174520 101 93 3.0 6.0 0.00 0.00 0.00 37 1013.9
20260906173516 102 66 2.0 3.0 0.00 0.00 0.00 36 1014.1
20260906172516 100 45 2.0 3.0 0.00 0.00 0.00 38 1014.1
20260906171536 99 67 2.0 3.0 0.00 0.00 0.00 38 1014.4
20260906170518 99 72 4.0 7.0 0.00 0.00 0.00 39 1014.5
20260906165517 99 72 3.0 5.0 0.00 0.00 0.00 40 1014.6
20260906164517 98 65 3.0 5.0 0.00 0.00 0.00 41 1014.9
20260906163537 98 45 2.0 4.0 0.00 0.00 0.00 43 1014.9
20260906162537 98 35 1.0 4.0 0.00 0.00 0.00 44 1014.8
20260906161517 97 73 2.0 4.0 0.00 0.00 0.00 45 1014.8
20260906160517 98 58 2.0 3.0 0.00 0.00 0.00 45 1014.9
20260906155518 98 91 2.0 4.0 0.00 0.00 0.00 44 1014.8
20260906154518 98 19 1.0 3.0 0.00 0.00 0.00 43 1014.8
20260906153538 97 44 2.0 4.0 0.00 0.00 0.00 45 1014.8
20260906152518 96 91 2.0 3.0 0.00 0.00 0.00 48 1014.7
20260906151518 95 61 1.0 3.0 0.00 0.00 0.00 49 1014.7
20260906150539 92 65 1.0 3.0 0.00 0.00 0.00 54 1014.6
20260906145538 90 62 1.0 3.0 0.00 0.00 0.00 55 1014.7
20260906144518 88 52 1.0 3.0 0.00 0.00 0.00 61 1014.7
20260906143539 87 47 1.0 2.0 0.00 0.00 0.00 62 1014.6
20260906142516 87 54 1.0 2.0 0.00 0.00 0.00 63 1014.6
20260906141516 86 44 1.0 3.0 0.00 0.00 0.00 63 1014.6
20260906140516 86 52 2.0 3.0 0.00 0.00 0.00 63 1014.5
20260906135517 85 281 0.0 2.0 0.00 0.00 0.00 63 1014.3
20260906134517 83 134 0.0 2.0 0.00 0.00 0.00 65 1014.3
20260906133516 83 157 0.0 2.0 0.00 0.00 0.00 66 1014.3
20260906132516 82 105 0.0 2.0 0.00 0.00 0.00 68 1014.2
20260906131537 81 75 1.0 3.0 0.00 0.00 0.00 71 1014.3
20260906130517 80 75 2.0 3.0 0.00 0.00 0.00 72 1014.3
20260906125518 78 65 0.0 2.0 0.00 0.00 0.00 74 1014.2
20260906124524 77 0.0 0.0 0.00 0.00 0.00 76 1013.9
20260906123524 76 157 0.0 2.0 0.00 0.00 0.00 78 1014.0
20260906122523 76 172 0.0 1.0 0.00 0.00 0.00 79 1013.8
20260906121524 75 160 0.0 2.0 0.00 0.00 0.00 81 1013.7
20260906120524 75 116 0.0 0.0 0.00 0.00 0.00 82 1013.5
20260906115524 76 0.0 0.0 0.00 0.00 0.00 82 1013.5
20260906114524 76 123 0.0 1.0 0.00 0.00 0.00 81 1013.5
20260906113524 76 48 0.0 2.0 0.00 0.00 0.00 81 1013.3
20260906112525 76 0.0 0.0 0.00 0.00 0.00 82 1013.2
20260906111525 76 232 0.0 1.0 0.00 0.00 0.00 83 1013.1
20260906110525 76 111 0.0 1.0 0.00 0.00 0.00 82 1013.2
20260906105525 77 0.0 0.0 0.00 0.00 0.00 81 1013.1
20260906104525 77 0.0 0.0 0.00 0.00 0.00 79 1013.0
20260906103525 77 0.0 0.0 0.00 0.00 0.00 80 1012.9
20260906102526 77 0.0 0.0 0.00 0.00 0.00 80 1013.1
20260906101546 77 0.0 0.0 0.00 0.00 0.00 80 1013.0
20260906100526 77 0.0 0.0 0.00 0.00 0.00 81 1013.1
20260906095526 77 0.0 0.0 0.00 0.00 0.00 81 1013.0
20260906094526 77 0.0 0.0 0.00 0.00 0.00 83 1013.1
20260906093547 77 75 0.0 1.0 0.00 0.00 0.00 83 1012.8
20260906092527 77 97 1.0 2.0 0.00 0.00 0.00 82 1012.8
20260906091527 77 80 1.0 2.0 0.00 0.00 0.00 81 1012.7
20260906090528 78 0.0 0.0 0.00 0.00 0.00 78 1012.6
20260906085607 78 123 0.0 1.0 0.00 0.00 0.00 76 1012.7
20260906084527 78 62 0.0 1.0 0.00 0.00 0.00 75 1012.6
20260906083527 78 0.0 0.0 0.00 0.00 0.00 75 1012.5
20260906082528 78 0.0 0.0 0.00 0.00 0.00 74 1012.4
20260906081548 78 0.0 0.0 0.00 0.00 0.00 73 1012.4
20260906080528 78 0.0 0.0 0.00 0.00 0.00 73 1012.5
20260906075529 78 50 0.0 1.0 0.00 0.00 0.00 74 1012.4
20260906074528 79 0.0 0.0 0.00 0.00 0.00 78 1012.5
20260906073528 79 0.0 0.0 0.00 0.00 0.00 79 1012.2
20260906072529 79 0.0 0.0 0.00 0.00 0.00 79 1012.5
20260906071549 79 0.0 0.0 0.00 0.00 0.00 79 1012.5
20260906070529 79 0.0 0.0 0.00 0.00 0.00 78 1012.5
20260906065549 79 145 0.0 1.0 0.00 0.00 0.00 78 1012.5
20260906064530 79 148 0.0 1.0 0.00 0.00 0.00 80 1012.5
20260906063549 79 0.0 0.0 0.00 0.00 0.00 79 1012.5
20260906062533 79 0.0 0.0 0.00 0.00 0.00 79 1012.5
20260906061530 80 0.0 0.0 0.00 0.00 0.00 78 1012.5
20260906060518 80 59 0.0 1.0 0.00 0.00 0.00 78 1012.6
20260906055519 81 48 0.0 1.0 0.00 0.00 0.00 78 1012.6
20260906054519 81 38 0.0 1.0 0.00 0.00 0.00 77 1012.6
20260906053516 81 0.0 0.0 0.00 0.00 0.00 72 1012.3
20260906052516 81 54 0.0 1.0 0.00 0.00 0.00 71 1012.5
20260906051516 81 56 0.0 1.0 0.00 0.00 0.00 70 1012.4
20260906050516 82 72 0.0 1.0 0.00 0.00 0.00 71 1012.3
20260906045517 82 75 0.0 1.0 0.00 0.00 0.00 70 1012.3
20260906044517 83 102 0.0 2.0 0.00 0.00 0.00 70 1012.4
20260906043517 82 182 1.0 2.0 0.00 0.00 0.00 70 1012.4
20260906042517 83 59 0.0 1.0 0.00 0.00 0.00 69 1012.3
20260906041517 83 51 0.0 1.0 0.00 0.00 0.00 70 1012.4
20260906040517 84 44 0.0 1.0 0.00 0.00 0.00 70 1012.3
20260906035558 84 48 0.0 1.0 0.00 0.00 0.00 70 1012.3
20260906034518 85 52 0.0 2.0 0.00 0.00 0.00 68 1012.2
20260906033518 85 46 0.0 1.0 0.00 0.00 0.00 62 1012.1
20260906032518 85 75 0.0 2.0 0.00 0.00 0.00 61 1012.1
20260906031518 86 67 0.0 1.0 0.00 0.00 0.00 60 1012.3
20260906030518 87 66 1.0 2.0 0.00 0.00 0.00 59 1012.3
20260906025519 87 70 0.0 1.0 0.00 0.00 0.00 57 1012.2
20260906024519 88 57 0.0 1.0 0.00 0.00 0.00 55 1012.0
20260906023519 88 87 0.0 1.0 0.00 0.00 0.00 55 1011.8
20260906022516 89 147 0.0 2.0 0.00 0.00 0.00 55 1011.7
20260906021516 89 139 0.0 2.0 0.00 0.00 0.00 55 1011.6
20260906020536 90 100 1.0 2.0 0.00 0.00 0.00 53 1011.5
20260906015517 91 73 0.0 2.0 0.00 0.00 0.00 51 1011.5
20260906014517 91 61 0.0 1.0 0.00 0.00 0.00 49 1011.4
20260906013538 92 66 1.0 1.0 0.00 0.00 0.00 47 1011.2
20260906012517 93 57 0.0 1.0 0.00 0.00 0.00 45 1011.2
20260906011517 94 53 1.0 2.0 0.00 0.00 0.00 44 1011.1
20260906010517 95 63 0.0 2.0 0.00 0.00 0.00 42 1011.1
20260906005518 96 16 1.0 2.0 0.00 0.00 0.00 41 1011.1
20260906004518 97 65 1.0 2.0 0.00 0.00 0.00 39 1011.0
20260906003518 97 81 2.0 3.0 0.00 0.00 0.00 39 1011.0
20260906002559 98 83 2.0 3.0 0.00 0.00 0.00 38 1011.0
20260906001519 98 81 3.0 5.0 0.00 0.00 0.00 38 1010.9
20260906000519 98 74 5.0 8.0 0.00 0.00 0.00 38 1010.9
20260905235519 99 86 3.0 6.0 0.00 0.00 0.00 38 1010.8
20260905234516 99 95 3.0 5.0 0.00 0.00 0.00 38 1010.7
20260905233516 99 93 3.0 5.0 0.00 0.00 0.00 37 1010.7
20260905232517 99 74 5.0 7.0 0.00 0.00 0.00 37 1010.6
20260905231517 100 98 1.0 3.0 0.00 0.00 0.00 37 1010.7
20260905230517 100 133 2.0 3.0 0.00 0.00 0.00 37 1010.6
20260905225517 100 81 3.0 7.0 0.00 0.00 0.00 36 1010.6
20260905224517 100 93 3.0 5.0 0.00 0.00 0.00 36 1010.5
20260905223537 101 76 5.0 8.0 0.00 0.00 0.00 36 1010.6
20260905222517 102 111 2.0 4.0 0.00 0.00 0.00 35 1010.7
20260905221518 102 108 4.0 8.0 0.00 0.00 0.00 35 1010.8
20260905220518 102 157 2.0 4.0 0.00 0.00 0.00 35 1010.9
20260905215518 101 84 3.0 4.0 0.00 0.00 0.00 35 1010.9
20260905214518 101 103 4.0 8.0 0.00 0.00 0.00 37 1011.0
20260905213518 102 79 4.0 8.0 0.00 0.00 0.00 36 1011.3
20260905212538 101 76 2.0 4.0 0.00 0.00 0.00 35 1011.3
20260905211519 100 79 3.0 6.0 0.00 0.00 0.00 37 1011.4
20260905210519 100 87 4.0 6.0 0.00 0.00 0.00 37 1011.6
20260905205519 101 108 3.0 6.0 0.00 0.00 0.00 37 1011.7
20260905204516 101 134 3.0 6.0 0.00 0.00 0.00 36 1011.8
20260905203516 100 88 4.0 8.0 0.00 0.00 0.00 36 1012.1
20260905202516 100 93 3.0 9.0 0.00 0.00 0.00 37 1012.2
20260905201537 101 216 3.0 9.0 0.00 0.00 0.00 35 1012.3
20260905200517 100 162 3.0 7.0 0.00 0.00 0.00 35 1012.5
20260905195517 100 89 3.0 9.0 0.00 0.00 0.00 36 1012.6
20260905194557 101 104 3.0 7.0 0.00 0.00 0.00 36 1012.9